Provo, UT

5:57 AM MDT on October 20, 2017 (GMT -0600)
Provo Municipal

Weather History for KPVU - November, 2011

Change the Weather History Date:

Monday, November 28, 2011

  Actual Average Record
Temperature  
Mean Temperature 32 °F -  
Max Temperature 42 °F 41 °F 62 °F (2014)
Min Temperature 23 °F 25 °F 10 °F (1992)
Degree Days  
Heating Degree Days 32    
Moisture  
Dew Point 26 °F    
Average Humidity 86    
Maximum Humidity 100    
Minimum Humidity 61    
Precipitation  
Precipitation 0.00 in - - ()
Sea Level Pressure  
Sea Level Pressure 30.38 in    
Wind  
Wind Speed 1 mph (SSE)    
Max Wind Speed 6 mph    
Max Gust Speed -    
Visibility 12 miles    
Events      
Averages and records for this station are not official NWS values.
T = Trace of Precipitation, MM = Missing Value Source: NWS Daily Summary

Daily Weather History Graph

Daily Weather History Graph

Search for Another Location

Airport or City:

Trip Planner

Search our weather history database for the weather conditions in past years. The results will help you decide how hot, cold, wet, or windy it might be!

Date:

Astronomy

Nov. 28, 2011 Rise Set
Actual Time 7:26 AM MST 5:02 PM MST
Civil Twilight 6:56 AM MST 5:32 PM MST
Nautical Twilight 6:23 AM MST 6:06 PM MST
Astronomical Twilight 5:50 AM MST 6:38 PM MST
Moon 10:38 AM MST (11/28) 8:53 PM MST (11/28)
Length of Visible Light 10h 35m
Length of Day
9h 35m
Waxing Crescent, 16% of the Moon is Illuminated
Nov 28
Waxing Crescent
Dec 2
First Quarter
Dec 10
Full
Dec 17
Last Quarter
Dec 24
New

Hourly Weather History & Observations

Time (MST) Temp. Windchill Dew Point Humidity Pressure Visibility Wind Dir Wind Speed Gust Speed Precip Events Conditions
12:15 AM 26.6 °F - 23.0 °F 86% 30.40 in 10.0 mi Calm Calm - N/A   Clear
12:35 AM 26.6 °F - 24.8 °F 93% 30.39 in 10.0 mi Calm Calm - N/A   Clear
12:55 AM 24.8 °F - 24.8 °F 100% 30.39 in 10.0 mi Calm Calm - N/A   Clear
1:15 AM 24.8 °F - 21.2 °F 86% 30.39 in 10.0 mi Calm Calm - N/A   Clear
1:35 AM 24.8 °F - 21.2 °F 86% 30.38 in 10.0 mi Calm Calm - N/A   Clear
1:55 AM 24.8 °F 19.1 °F 23.0 °F 93% 30.38 in 10.0 mi South 4.6 mph - N/A   Clear
2:15 AM 26.6 °F - 26.6 °F 100% 30.39 in 10.0 mi Calm Calm - N/A   Clear
2:35 AM 24.8 °F - 23.0 °F 93% 30.39 in 10.0 mi Calm Calm - N/A   Clear
2:55 AM 24.8 °F - 24.8 °F 100% 30.38 in 10.0 mi Calm Calm - N/A   Clear
3:15 AM 24.8 °F - 24.8 °F 100% 30.38 in 10.0 mi Calm Calm - N/A   Clear
3:35 AM 24.8 °F 20.5 °F 21.2 °F 86% 30.38 in 10.0 mi SSE 3.5 mph - N/A   Clear
3:55 AM 26.6 °F - 26.6 °F 100% 30.38 in 10.0 mi Calm Calm - N/A   Clear
4:15 AM 28.4 °F - 26.6 °F 93% 30.37 in 10.0 mi Calm Calm - N/A   Clear
4:35 AM 26.6 °F - 24.8 °F 93% 30.37 in 10.0 mi Calm Calm - N/A   Clear
4:55 AM 23.0 °F 17.0 °F 21.2 °F 93% 30.37 in 10.0 mi SSE 4.6 mph - N/A   Clear
5:35 AM 24.8 °F - 23.0 °F 93% 30.37 in 10.0 mi Calm Calm - N/A   Clear
5:55 AM 24.8 °F - 24.8 °F 100% 30.38 in 10.0 mi Calm Calm - N/A   Clear
6:15 AM 24.8 °F - 21.2 °F 86% 30.37 in 10.0 mi Calm Calm - N/A   Clear
6:47 AM 24.8 °F - 21.2 °F 86% 30.38 in 15.0 mi Calm Calm - N/A   Scattered Clouds
7:52 AM 26.6 °F - 24.8 °F 93% 30.38 in 15.0 mi Calm Calm - N/A   Mostly Cloudy
9:55 AM 35.6 °F - 28.4 °F 75% 30.40 in 15.0 mi Calm Calm - N/A   Mostly Cloudy
10:51 AM 37.4 °F - 30.2 °F 75% 30.40 in 15.0 mi Calm Calm - N/A   Mostly Cloudy
11:51 AM 39.2 °F 35.0 °F 30.2 °F 70% 30.37 in 15.0 mi WSW 5.8 mph - N/A   Mostly Cloudy
12:52 PM 39.2 °F - 26.6 °F 61% 30.35 in 15.0 mi Calm Calm - N/A   Mostly Cloudy
1:50 PM 41.0 °F 37.1 °F 28.4 °F 61% 30.33 in 15.0 mi Variable 5.8 mph - N/A   Mostly Cloudy
3:50 PM 42.8 °F - 32.0 °F 66% 30.33 in 15.0 mi Calm Calm - N/A   Overcast
4:50 PM 39.2 °F - 26.6 °F 61% 30.33 in 15.0 mi Calm Calm - N/A   Overcast
7:50 PM 35.6 °F 30.7 °F 32.0 °F 87% 30.36 in 15.0 mi Variable 5.8 mph - N/A   Mostly Cloudy
8:50 PM 35.6 °F - 28.4 °F 75% 30.36 in 15.0 mi Calm Calm - N/A   Mostly Cloudy
9:15 PM 33.8 °F 30.8 °F 28.4 °F 81% 30.38 in 10.0 mi SSE 3.5 mph - N/A   Clear
9:35 PM 35.6 °F 30.7 °F 28.4 °F 75% 30.38 in 10.0 mi ESE 5.8 mph - N/A   Scattered Clouds
10:15 PM 33.8 °F 29.6 °F 30.2 °F 87% 30.38 in 10.0 mi South 4.6 mph - N/A   Partly Cloudy
10:35 PM 33.8 °F 30.8 °F 30.2 °F 87% 30.38 in 9.0 mi ESE 3.5 mph - N/A   Partly Cloudy
10:55 PM 33.8 °F - 30.2 °F 87% 30.38 in 10.0 mi Calm Calm - N/A   Scattered Clouds
11:15 PM 33.8 °F - 30.2 °F 87% 30.38 in 10.0 mi Calm Calm - N/A   Partly Cloudy
11:35 PM 32.0 °F - 28.4 °F 87% 30.37 in 10.0 mi Calm Calm - N/A   Partly Cloudy
11:55 PM 30.2 °F - 28.4 °F 93% 30.38 in 10.0 mi Calm Calm - N/A   Mostly Cloudy